This is the latest recevied weather packets stored in our database for station/object KO4ZGL-13. If no packets are shown the sender has not sent any weather packets the latest 10 day(s).
| Time | Temp. | Humidity | Pressure | Rain* | Wind** | Luminosity | Snow |
|---|---|---|---|---|---|---|---|
| 1787439740 | 23.89° C | 99% | 1014.1 hPa | 0 mm | - | 28 W/m² | - |
| 1787439436 | 23.89° C | 99% | 1014 hPa | 0 mm | - | 45 W/m² | - |
| 1787439132 | 24.44° C | 99% | 1013.8 hPa | 0 mm | - | 76 W/m² | - |
| 1787438828 | 23.89° C | 99% | 1013.8 hPa | 0 mm | - | 108 W/m² | - |
| 1787438527 | 23.89° C | 99% | 1014.1 hPa | 0 mm | - | 116 W/m² | - |
| 1787438222 | 23.89° C | 99% | 1014.4 hPa | 0 mm | - | 113 W/m² | - |
| 1787437916 | 23.89° C | 99% | 1014.4 hPa | 0 mm | - | 111 W/m² | - |
| 1787437613 | 23.33° C | 99% | 1013.9 hPa | 0 mm | - | 92 W/m² | - |
| 1787437309 | 23.33° C | 99% | 1014.2 hPa | 0 mm | - | 57 W/m² | - |
| 1787437005 | 23.33° C | 99% | 1014 hPa | 1.27 mm | - | 50 W/m² | - |
| 1787436701 | 23.33° C | 99% | 1013.9 hPa | 1.27 mm | - | 26 W/m² | - |
| 1787436397 | 23.33° C | 99% | 1013.6 hPa | 1.27 mm | - | 17 W/m² | - |
| 1787436091 | 23.33° C | 99% | 1013.9 hPa | 0 mm | - | 12 W/m² | - |
| 1787435786 | 23.33° C | 99% | 1014.5 hPa | 1.78 mm | - | 12 W/m² | - |
| 1787435482 | 23.33° C | 99% | 1014.6 hPa | 3.05 mm | - | 12 W/m² | - |
| 1787435179 | 23.33° C | 99% | 1015 hPa | 6.1 mm | - | 11 W/m² | - |
| 1787434874 | 23.33° C | 98% | 1015 hPa | 12.7 mm | - | 6 W/m² | - |
| 1787434570 | 23.89° C | 98% | 1014.4 hPa | 22.86 mm | - | 7 W/m² | - |
| 1787434266 | 23.89° C | 98% | 1014.3 hPa | 21.59 mm | - | 7 W/m² | - |
| 1787433962 | 23.89° C | 98% | 1014.6 hPa | 28.7 mm | - | 8 W/m² | - |
| 1787433661 | 24.44° C | 98% | 1014.8 hPa | 57.66 mm | - | 3 W/m² | - |
| 1787433357 | 24.44° C | 98% | 1014.7 hPa | 69.09 mm | - | 0 W/m² | - |
| 1787433053 | 25° C | 98% | 1014.1 hPa | 25.91 mm | - | 4 W/m² | - |
| 1787432750 | 25° C | 97% | 1013.7 hPa | 4.32 mm | - | 11 W/m² | - |
| 1787432449 | 26.11° C | 97% | 1013.8 hPa | 0 mm | - | 10 W/m² | - |
* Rain latest hour (hover to see other rain measurements)
** Current wind speed in m/s (hover to see current wind gust speed)